N0WXR Weather Reports


time (UTC)temp
F
wind
direction
speed
knots
gust
knots
rain 1hr
in
rain 24hr
in
rain mn
in
humidity
%
barometer
mb
20260508164953 73 154 0.9 0.9 0.00 0.00 0.00 46 1018.0
20260508164454 73 146 0.9 0.9 0.00 0.00 0.00 41 1018.0
20260508163953 72 166 0.9 1.7 0.00 0.00 0.00 41 1018.0
20260508163452 73 145 0.9 0.9 0.00 0.00 0.00 42 1018.0
20260508162955 73 251 2.6 2.6 0.00 0.00 0.00 44 1018.0
20260508162453 72 147 0.0 0.0 0.00 0.00 0.00 47 1018.0
20260508161953 71 143 0.9 0.9 0.00 0.00 0.00 55 1018.0
20260508161452 72 144 0.9 0.9 0.00 0.00 0.00 54 1018.0
20260508160952 73 155 0.9 0.9 0.00 0.00 0.00 48 1019.0
20260508160453 73 143 0.0 0.0 0.00 0.00 0.00 46 1019.0
20260508155955 71 125 1.7 1.7 0.00 0.00 0.00 43 1019.0
20260508155453 72 143 0.0 0.9 0.00 0.00 0.00 46 1019.0
20260508154953 71 155 1.7 1.7 0.00 0.00 0.00 46 1019.0
20260508154452 70 132 0.0 0.9 0.00 0.00 0.00 47 1019.0
20260508153952 69 152 0.9 0.9 0.00 0.00 0.00 53 1019.0
20260508153456 71 137 0.9 0.9 0.00 0.00 0.00 45 1019.0
20260508152954 71 133 1.7 2.6 0.00 0.00 0.00 47 1019.0
20260508152453 71 161 0.0 0.9 0.00 0.00 0.00 46 1019.0
20260508151952 70 148 0.0 0.0 0.00 0.00 0.00 58 1019.0
20260508151452 69 181 1.7 1.7 0.00 0.00 0.00 54 1019.0
20260508150953 69 141 0.9 0.9 0.00 0.00 0.00 49 1019.0
20260508150452 68 142 0.0 0.0 0.00 0.00 0.00 53 1019.0
20260508145953 67 108 0.9 2.6 0.00 0.00 0.00 54 1019.0
20260508145453 67 19 2.6 2.6 0.00 0.00 0.00 51 1019.0
20260508144953 67 148 0.0 0.0 0.00 0.00 0.00 58 1019.0
20260508144452 67 119 1.7 1.7 0.00 0.00 0.00 57 1019.0
20260508143952 65 149 0.9 0.9 0.00 0.00 0.00 75 1019.0
20260508143453 65 144 0.0 0.9 0.00 0.00 0.00 74 1019.0
20260508142953 65 139 0.0 0.9 0.00 0.00 0.00 65 1019.0
20260508142453 64 138 0.9 0.9 0.00 0.00 0.00 67 1019.0
20260508141952 64 142 0.9 0.9 0.00 0.00 0.00 67 1019.0
20260508141452 63 150 0.0 0.9 0.00 0.00 0.00 66 1019.0
20260508140954 63 144 0.9 0.9 0.00 0.00 0.00 67 1019.0
20260508140453 62 160 0.0 0.0 0.00 0.00 0.00 83 1019.0
20260508135959 62 136 0.0 0.0 0.00 0.00 0.00 68 1019.0
20260508135452 61 86 0.0 0.0 0.00 0.00 0.00 70 1019.0
20260508134956 61 150 0.0 0.0 0.00 0.00 0.00 76 1019.0
20260508134452 60 129 1.7 1.7 0.00 0.00 0.00 80 1019.0
20260508133953 58 143 0.9 0.9 0.00 0.00 0.00 92 1019.0
20260508133452 58 144 0.0 0.0 0.00 0.00 0.00 94 1019.0
20260508132952 58 127 1.7 1.7 0.00 0.00 0.00 82 1019.0
20260508132454 58 146 0.0 0.0 0.00 0.00 0.00 93 1019.0
20260508131953 57 143 0.0 0.0 0.00 0.00 0.00 88 1019.0
20260508131453 57 144 0.0 0.9 0.00 0.00 0.00 99 1019.0
20260508130954 57 138 0.0 0.0 0.00 0.00 0.00 93 1019.0
20260508130452 57 144 0.0 0.0 0.00 0.00 0.00 99 1019.0
20260508125953 57 144 0.9 0.9 0.00 0.00 0.00 97 1018.0
20260508125453 57 137 0.9 0.9 0.00 0.00 0.00 99 1018.0
20260508124952 56 146 0.0 0.0 0.00 0.00 0.00 99 1018.0
20260508124453 56 140 0.0 0.0 0.00 0.00 0.00 99 1018.0
20260508123952 56 145 0.0 0.0 0.00 0.00 0.00 99 1018.0
20260508123452 56 148 0.0 0.0 0.00 0.00 0.00 99 1018.0
20260508122953 55 148 0.0 0.0 0.00 0.00 0.00 99 1018.0
20260508122452 55 149 0.0 0.0 0.00 0.00 0.00 99 1018.0
20260508121952 55 144 0.0 0.0 0.00 0.00 0.00 98 1018.0
20260508121452 55 149 0.9 0.9 0.00 0.00 0.00 97 1018.0
20260508120952 54 144 0.9 0.9 0.00 0.00 0.00 99 1018.0
20260508120453 53 145 0.0 0.9 0.00 0.00 0.00 99 1018.0
20260508115954 54 141 0.0 0.0 0.00 0.00 0.00 99 1018.0
20260508115454 54 145 0.0 0.0 0.00 0.00 0.00 99 1018.0
20260508114952 54 145 0.0 0.0 0.00 0.00 0.00 99 1018.0
20260508114452 54 145 0.0 0.0 0.00 0.00 0.00 99 1018.0
20260508113526 53 148 0.0 0.0 0.00 0.00 0.00 99 1017.0
20260508112952 53 148 0.0 0.0 0.00 0.00 0.00 99 1017.0
20260508112452 53 147 0.0 0.0 0.00 0.00 0.00 99 1017.0
20260508111952 52 148 0.0 0.0 0.00 0.00 0.00 99 1017.0
20260508111452 52 147 0.0 0.0 0.00 0.00 0.00 99 1017.0
20260508110953 51 148 0.0 0.0 0.00 0.00 0.00 99 1017.0
20260508110453 51 148 0.0 0.0 0.00 0.00 0.00 99 1017.0
20260508105953 51 148 0.0 0.0 0.00 0.00 0.00 99 1017.0
20260508105452 51 149 0.0 0.0 0.00 0.00 0.00 99 1017.0
20260508104952 51 148 0.0 0.0 0.00 0.00 0.00 99 1017.0
20260508104452 51 148 0.0 0.0 0.00 0.00 0.00 99 1017.0
20260508103955 51 148 0.0 0.0 0.00 0.00 0.00 99 1017.0
20260508103452 52 148 0.0 0.0 0.00 0.00 0.00 99 1017.0
20260508102952 52 148 0.0 0.0 0.00 0.00 0.00 99 1017.0
20260508102454 52 148 0.0 0.0 0.00 0.00 0.00 99 1017.0
20260508101953 52 148 0.0 0.0 0.00 0.00 0.00 99 1017.0
20260508101452 52 148 0.0 0.0 0.00 0.00 0.00 99 1017.0
20260508100952 52 148 0.0 0.0 0.00 0.00 0.00 99 1017.0
20260508100452 52 148 0.0 0.0 0.00 0.00 0.00 99 1017.0
20260508095952 53 148 0.0 0.0 0.00 0.00 0.00 99 1017.0
20260508095452 53 148 0.0 0.0 0.00 0.00 0.00 99 1017.0
20260508094953 53 148 0.0 0.0 0.00 0.00 0.00 99 1017.0
20260508094452 53 148 0.0 0.0 0.00 0.00 0.00 99 1016.0
20260508093952 53 148 0.0 0.0 0.00 0.00 0.00 99 1016.0
20260508093453 53 148 0.0 0.0 0.00 0.00 0.00 99 1016.0
20260508092953 53 149 0.0 0.0 0.00 0.00 0.00 99 1016.0
20260508092452 53 148 0.0 0.0 0.00 0.00 0.00 99 1016.0
20260508091953 53 148 0.0 0.0 0.00 0.00 0.00 99 1016.0
20260508091452 53 149 0.0 0.0 0.00 0.00 0.00 99 1016.0
20260508090952 53 149 0.0 0.0 0.00 0.00 0.00 99 1016.0
20260508090452 54 149 0.0 0.0 0.00 0.00 0.00 99 1016.0
20260508085953 54 149 0.0 0.0 0.00 0.00 0.00 99 1016.0
20260508085453 54 148 0.0 0.0 0.00 0.00 0.00 99 1016.0
20260508084952 54 148 0.0 0.0 0.00 0.00 0.00 99 1016.0
20260508084455 53 148 0.0 0.0 0.00 0.00 0.00 99 1016.0
20260508083952 53 148 0.0 0.0 0.00 0.00 0.00 99 1016.0
20260508083453 53 149 0.0 0.0 0.00 0.00 0.00 99 1016.0
20260508082952 53 149 0.0 0.0 0.00 0.00 0.00 99 1016.0
20260508082452 53 149 0.0 0.0 0.00 0.00 0.00 99 1015.0
20260508081953 53 149 0.0 0.0 0.00 0.00 0.00 99 1015.0
20260508081453 53 149 0.0 0.0 0.00 0.00 0.00 99 1015.0
20260508080955 53 149 0.0 0.0 0.00 0.00 0.00 99 1015.0
20260508080454 53 157 0.0 0.0 0.00 0.00 0.00 99 1015.0
20260508075953 53 145 0.0 0.0 0.00 0.00 0.00 99 1015.0
20260508075454 53 145 0.0 0.0 0.00 0.00 0.00 99 1015.0
20260508074953 53 145 0.0 0.0 0.00 0.00 0.00 99 1015.0
20260508074453 53 145 0.0 0.0 0.00 0.00 0.00 99 1015.0
20260508073953 53 146 0.0 0.0 0.00 0.00 0.00 99 1015.0
20260508073453 53 145 0.0 0.0 0.00 0.00 0.00 99 1015.0
20260508072953 53 148 0.0 0.0 0.00 0.00 0.00 99 1015.0
20260508072453 53 148 0.0 0.0 0.00 0.00 0.00 99 1015.0
20260508071953 53 148 0.0 0.0 0.00 0.00 0.00 99 1015.0
20260508071453 54 149 0.0 0.0 0.00 0.00 0.00 99 1015.0
20260508070953 54 145 0.0 0.0 0.00 0.00 0.00 99 1015.0
20260508070452 54 145 0.0 0.0 0.00 0.00 0.00 99 1015.0
20260508065953 54 145 0.0 0.0 0.00 0.00 0.00 99 1015.0
20260508065453 54 146 0.0 0.0 0.00 0.00 0.00 99 1015.0
20260508064952 55 145 0.0 0.0 0.00 0.00 0.00 99 1015.0
20260508064452 55 145 0.0 0.0 0.00 0.00 0.00 99 1015.0
20260508063952 55 145 0.0 0.0 0.00 0.00 0.00 99 1015.0
20260508063453 55 145 0.0 0.0 0.00 0.00 0.00 99 1015.0
20260508062952 55 145 0.0 0.0 0.00 0.00 0.00 99 1015.0
20260508062454 55 145 0.0 0.0 0.05 0.00 0.00 99 1015.0
20260508061954 55 145 0.0 0.0 0.05 0.00 0.00 99 1015.0
20260508061452 55 145 0.0 0.0 0.00 0.00 0.00 99 1015.0
20260508060952 55 145 0.0 0.0 0.00 0.00 0.00 99 1015.0
20260508060454 55 145 0.0 0.0 0.00 0.00 0.00 99 1015.0
20260508055952 55 145 0.0 0.0 0.00 0.00 0.00 99 1015.0
20260508055453 55 145 0.0 0.0 0.00 0.00 0.00 99 1015.0
20260508054953 55 145 0.0 0.0 0.00 0.00 0.00 99 1015.0
20260508054452 56 145 0.0 0.0 0.00 0.00 0.00 99 1015.0
20260508053952 56 145 0.0 0.0 0.00 0.00 0.00 99 1015.0
20260508053452 56 146 0.0 0.0 0.00 0.00 0.00 99 1015.0
20260508052952 56 146 0.0 0.0 0.00 0.00 0.00 99 1015.0
20260508052453 56 145 0.0 0.0 0.00 0.00 0.00 99 1015.0
20260508051953 56 145 0.0 0.0 0.00 0.00 0.00 99 1015.0
20260508051453 57 145 0.0 0.0 0.00 0.00 0.00 99 1015.0
20260508050952 57 145 0.0 0.0 0.00 0.00 0.00 99 1015.0
20260508050452 57 145 0.0 0.0 0.00 0.00 0.00 99 1015.0
20260508045952 57 145 0.0 0.0 0.00 0.00 0.00 99 1015.0
20260508045452 57 145 0.0 0.0 0.00 0.00 0.00 99 1015.0
20260508044953 57 145 0.0 0.0 0.00 0.00 0.00 99 1015.0
20260508044452 57 145 0.0 0.0 0.00 0.00 0.00 99 1015.0
20260508043953 57 145 0.0 0.0 0.00 0.00 0.00 99 1015.0
20260508043452 57 145 0.0 0.0 0.00 0.00 0.00 99 1015.0
20260508042952 57 145 0.0 0.0 0.00 0.00 0.00 99 1015.0
20260508042452 57 146 0.0 0.0 0.00 0.00 0.00 99 1014.0
20260508041952 57 145 0.0 0.0 0.00 0.00 0.00 99 1014.0
20260508041452 58 145 0.0 0.0 0.00 0.00 0.00 99 1014.0
20260508040954 58 145 0.0 0.0 0.00 0.00 0.00 99 1014.0
20260508040453 58 145 0.0 0.0 0.00 0.00 0.00 99 1014.0
20260508035952 58 145 0.0 0.0 0.00 0.00 1.75 99 1015.0
20260508035453 58 145 0.0 0.0 0.00 0.00 1.75 99 1015.0
20260508034952 58 145 0.0 0.0 0.00 0.00 1.75 99 1015.0
20260508034452 58 145 0.0 0.0 0.00 0.00 1.75 99 1014.0
20260508033952 58 145 0.0 0.0 0.00 0.00 1.75 99 1014.0
20260508033453 58 145 0.0 0.0 0.00 0.00 1.75 99 1015.0
20260508032953 58 145 0.0 0.0 0.00 0.00 1.75 99 1015.0
20260508032452 58 145 0.0 0.0 0.00 0.00 1.75 99 1014.0
20260508031952 58 145 0.0 0.0 0.00 0.00 1.75 99 1014.0
20260508031452 58 145 0.0 0.0 0.00 0.00 1.75 99 1014.0
20260508030953 58 145 0.0 0.0 0.00 0.00 1.75 99 1014.0
20260508030452 59 145 0.0 0.0 0.00 0.00 1.75 99 1014.0
20260508025952 59 145 0.0 0.0 0.00 0.00 1.75 99 1014.0
20260508025452 59 145 0.0 0.0 0.00 0.00 1.75 99 1014.0
20260508024956 59 145 0.0 0.0 0.00 0.00 1.75 99 1014.0
20260508024452 59 145 0.0 0.0 0.00 0.00 1.75 99 1014.0
20260508023952 59 147 0.0 0.0 0.00 0.00 1.75 99 1014.0
20260508023456 59 145 0.0 0.0 0.00 0.00 1.75 99 1014.0
20260508022505 59 147 0.0 0.0 0.00 0.00 1.75 99 1014.0
20260508021952 59 149 0.0 0.0 0.00 0.00 1.75 99 1014.0
20260508021453 59 147 0.0 0.0 0.00 0.00 1.75 99 1014.0
20260508020953 59 147 0.0 0.0 0.00 0.00 1.75 99 1014.0
20260508020452 60 145 0.0 0.0 0.00 0.00 1.75 99 1014.0
20260508015952 59 147 0.0 0.0 0.00 0.00 1.75 99 1014.0
20260508015453 60 146 0.0 0.0 0.00 0.00 1.75 99 1014.0
20260508014952 60 142 0.0 0.0 0.00 0.00 1.75 99 1014.0
20260508014453 60 142 0.0 0.0 0.00 0.00 1.75 99 1014.0
20260508013953 60 145 0.0 0.0 0.00 0.00 1.75 99 1014.0
20260508013453 60 145 0.0 0.0 0.05 0.00 1.75 99 1013.0
20260508012953 60 144 0.0 0.0 0.05 0.00 1.75 99 1013.0
20260508012453 60 144 0.0 0.0 0.05 0.00 1.75 99 1013.0
20260508011952 60 144 0.0 0.0 0.05 0.00 1.75 99 1013.0
20260508011452 60 142 0.0 0.0 0.05 0.00 1.74 99 1013.0
20260508010952 60 137 0.0 0.9 0.10 0.00 1.74 99 1013.0
20260508010452 60 142 0.9 0.9 0.05 0.00 1.73 99 1013.0
20260508005953 60 145 0.9 0.9 0.05 0.00 1.72 99 1013.0
20260508005452 60 141 0.9 0.9 0.10 0.00 1.72 99 1013.0
20260508004952 60 140 0.0 0.9 0.05 0.00 1.71 99 1013.0
20260508004453 60 133 0.9 2.6 0.10 0.00 1.70 99 1012.0
20260508003953 60 141 0.0 0.9 0.10 0.00 1.70 99 1012.0
20260508003452 60 142 0.0 0.0 0.10 0.00 1.69 99 1012.0
20260508002953 60 145 0.0 0.0 0.10 0.00 1.69 99 1012.0
20260508002453 60 147 0.0 0.0 0.10 0.00 1.66 99 1012.0
20260508001953 60 145 0.9 0.9 0.15 0.00 1.66 99 1012.0
20260508001454 61 145 0.9 0.9 0.15 0.00 1.65 99 1012.0
20260507182954 76 155 0.9 1.7 0.05 0.00 1.28 84 1009.0
20260507182454 75 148 0.0 0.0 0.10 0.00 1.28 85 1009.0
20260507181952 75 188 1.7 2.6 0.05 0.00 1.28 81 1009.0
20260507181453 76 148 0.0 0.9 0.00 0.00 1.27 80 1009.0
20260507180953 75 158 0.0 1.7 0.05 0.00 1.27 85 1009.0
20260507180453 74 151 0.9 0.9 0.10 0.00 1.27 88 1009.0
20260507175955 73 143 0.0 0.0 0.05 0.00 1.26 88 1009.0
20260507175452 73 221 0.9 0.9 0.00 0.00 1.25 87 1009.0
20260507174955 74 154 1.7 1.7 0.05 0.00 1.25 90 1009.0
20260507174454 72 148 0.0 0.9 0.10 0.00 1.25 94 1009.0
20260507173952 72 225 4.3 4.3 0.05 0.00 1.25 88 1009.0
20260507173453 72 153 0.0 0.9 0.00 0.00 1.24 94 1010.0
20260507172953 71 295 1.7 4.3 0.05 0.00 1.24 91 1010.0
20260507172453 71 151 0.9 2.6 0.10 0.00 1.24 97 1009.0
20260507171952 70 147 0.0 0.9 0.05 0.00 1.23 99 1009.0
20260507171453 70 144 1.7 1.7 0.05 0.00 1.22 98 1009.0
20260507170954 70 149 0.0 0.0 0.05 0.00 1.22 96 1009.0
20260507170453 71 153 0.0 0.0 0.05 0.00 1.21 96 1009.0
20260507165953 71 176 1.7 2.6 0.05 0.00 1.21 93 1009.0
20260507165454 71 211 1.7 2.6 0.05 0.00 1.21 95 1009.0